Weather History for KPAE - July, 2013

Change the Weather History Date:

Tuesday, July 16, 2013

  Actual Average Record
Temperature  
Mean Temperature 70 °F -  
Max Temperature 82 °F 72 °F 87 °F (1958)
Min Temperature 59 °F 53 °F 41 °F (1950)
Cooling Degree Days 5    
Growing Degree Days 20 (Base 50)    
Moisture  
Dew Point 48 °F    
Average Humidity 46    
Maximum Humidity 60    
Minimum Humidity 33    
Precipitation  
Precipitation 0.00 in - - ()
Sea Level Pressure  
Sea Level Pressure 29.89 in    
Wind  
Wind Speed 5 mph (North)    
Max Wind Speed 10 mph    
Max Gust Speed 16 mph    
Visibility 10 miles    
Events Rain , Thunderstorm    
Averages and records for this station are not official NWS values.
T = Trace of Precipitation, MM = Missing Value Source: NWS Daily Summary

Daily Weather History Graph

Daily Weather History Graph

Search for Another Location

Airport or City:

Trip Planner

Search our weather history database for the weather conditions in past years. The results will help you decide how hot, cold, wet, or windy it might be!

Date:

Astronomy

Jul. 16, 2013 Rise Set
Actual Time 5:27 AM PDT 9:02 PM PDT
Civil Twilight 4:48 AM PDT 9:41 PM PDT
Nautical Twilight 3:55 AM PDT 10:33 PM PDT
Astronomical Twilight 2:43 AM PDT 11:44 PM PDT
Moon 2:40 PM PDT (7/16) 12:13 AM PDT (7/16)
Length of Visible Light 16h 53m
Length of Day
15h 35m
First Quarter, 57% of the Moon is Illuminated
Jul 16
First Quarter
Jul 22
Full
Jul 29
Last Quarter
Aug 6
New
Aug 14
First Quarter

Hourly Weather History & Observations

Time (PDT) Temp. Dew Point Humidity Pressure Visibility Wind Dir Wind Speed Gust Speed Precip Events Conditions
12:53 AM 61.0 °F 46.0 °F 58% 29.93 in 10.0 mi North 3.5 mph - N/A   Clear
1:53 AM 61.0 °F 45.0 °F 56% 29.92 in 10.0 mi North 3.5 mph - N/A   Clear
2:53 AM 61.0 °F 44.1 °F 54% 29.91 in 10.0 mi North 3.5 mph - N/A   Clear
3:53 AM 61.0 °F 44.1 °F 54% 29.91 in 10.0 mi North 3.5 mph - N/A   Clear
4:53 AM 59.0 °F 45.0 °F 60% 29.91 in 10.0 mi Calm Calm - N/A   Clear
5:53 AM 61.0 °F 45.0 °F 56% 29.91 in 10.0 mi NNE 5.8 mph - N/A   Clear
6:53 AM 62.1 °F 48.0 °F 60% 29.90 in 10.0 mi North 4.6 mph - N/A   Clear
7:53 AM 64.0 °F 50.0 °F 60% 29.91 in 10.0 mi North 5.8 mph - N/A   Clear
8:53 AM 66.9 °F 51.1 °F 57% 29.89 in 10.0 mi North 6.9 mph - N/A   Clear
9:53 AM 70.0 °F 50.0 °F 49% 29.89 in 10.0 mi NNW 10.4 mph 16.1 mph N/A   Clear
10:53 AM 73.9 °F 50.0 °F 43% 29.89 in 10.0 mi North 8.1 mph - N/A   Clear
11:53 AM 77.0 °F 50.0 °F 39% 29.89 in 10.0 mi North 5.8 mph - N/A   Clear
12:53 PM 79.0 °F 48.0 °F 34% 29.89 in 10.0 mi North 5.8 mph - N/A   Clear
1:53 PM 79.0 °F 48.9 °F 35% 29.88 in 10.0 mi NNW 4.6 mph - N/A   Clear
2:53 PM 81.0 °F 48.9 °F 33% 29.86 in 10.0 mi North 9.2 mph - N/A   Clear
3:53 PM 81.0 °F 50.0 °F 34% 29.86 in 10.0 mi North 9.2 mph - N/A   Clear
4:53 PM 79.0 °F 48.9 °F 35% 29.86 in 10.0 mi Calm Calm - N/A   Clear
5:53 PM 77.0 °F 46.9 °F 34% 29.86 in 10.0 mi NNE 6.9 mph - N/A   Mostly Cloudy
6:53 PM 75.9 °F 48.0 °F 37% 29.85 in 10.0 mi North 3.5 mph - N/A   Clear
7:53 PM 73.9 °F 48.0 °F 40% 29.85 in 10.0 mi NNW 3.5 mph - N/A   Clear
8:53 PM 72.0 °F 50.0 °F 46% 29.86 in 10.0 mi North 3.5 mph - N/A   Partly Cloudy
9:53 PM 72.0 °F 48.9 °F 44% 29.88 in 10.0 mi Calm Calm - N/A   Clear
10:53 PM 71.1 °F 48.0 °F 44% 29.89 in 10.0 mi WSW 5.8 mph - N/A   Scattered Clouds
11:05 PM 71.6 °F 48.2 °F 43% 29.91 in 10.0 mi South 10.4 mph - N/A Thunderstorm Scattered Clouds
11:20 PM 69.8 °F 50.0 °F 49% 29.90 in 10.0 mi SSW 5.8 mph - N/A   Scattered Clouds
11:53 PM 70.0 °F 48.0 °F 46% 29.89 in 10.0 mi WSW 4.6 mph - 0.00 in Rain Light Rain